TimeMDT,TemperatureF,Dew PointF,Humidity,Sea Level PressureIn,VisibilityMPH,Wind Direction,Wind SpeedMPH,Gust SpeedMPH,PrecipitationIn,Events,Conditions,WindDirDegrees,DateUTC
3:15 AM,26.6,24.8,93,29.79,10.0,SE,12.7,-,N/A,,Mostly Cloudy,130,2013-04-11 09:15:00
3:35 AM,26.6,26.6,100,29.79,10.0,SE,10.4,-,N/A,,Mostly Cloudy,140,2013-04-11 09:35:00
3:55 AM,28.4,24.8,86,29.78,10.0,South,6.9,-,N/A,,Mostly Cloudy,170,2013-04-11 09:55:00
4:15 AM,28.4,26.6,93,29.78,10.0,Calm,Calm,-,N/A,,Partly Cloudy,0,2013-04-11 10:15:00
4:35 AM,28.4,24.8,86,29.78,10.0,North,3.5,-,N/A,,Mostly Cloudy,10,2013-04-11 10:35:00
4:55 AM,26.6,24.8,93,29.77,10.0,Calm,Calm,-,N/A,,Scattered Clouds,0,2013-04-11 10:55:00
5:15 AM,28.4,26.6,93,29.79,10.0,NNE,5.8,-,N/A,,Mostly Cloudy,20,2013-04-11 11:15:00
5:35 AM,26.6,24.8,93,29.79,10.0,Calm,Calm,-,N/A,,Scattered Clouds,0,2013-04-11 11:35:00
5:55 AM,26.6,24.8,93,29.81,10.0,Calm,Calm,-,N/A,,Mostly Cloudy,0,2013-04-11 11:55:00
6:15 AM,28.4,26.6,93,29.80,10.0,South,6.9,-,N/A,,Overcast,190,2013-04-11 12:15:00
6:35 AM,28.4,24.8,86,29.81,10.0,ESE,3.5,-,N/A,,Scattered Clouds,110,2013-04-11 12:35:00
7:15 AM,28.4,26.6,93,29.82,10.0,Calm,Calm,-,N/A,,Overcast,0,2013-04-11 13:15:00
7:55 AM,30.2,26.6,86,29.83,10.0,Calm,Calm,-,N/A,,Clear,0,2013-04-11 13:55:00
8:15 AM,30.2,26.6,86,29.84,10.0,North,3.5,-,N/A,,Clear,10,2013-04-11 14:15:00
8:35 AM,33.8,28.4,81,29.84,10.0,Calm,Calm,-,N/A,,Clear,0,2013-04-11 14:35:00
8:55 AM,37.4,30.2,75,29.84,10.0,Calm,Calm,-,N/A,,Partly Cloudy,0,2013-04-11 14:55:00
9:15 AM,39.2,32.0,75,29.84,10.0,South,4.6,-,N/A,,Mostly Cloudy,170,2013-04-11 15:15:00
9:35 AM,39.2,30.2,70,29.84,10.0,ESE,5.8,-,N/A,,Scattered Clouds,120,2013-04-11 15:35:00
9:55 AM,41.0,30.2,65,29.85,10.0,ESE,5.8,-,N/A,,Clear,120,2013-04-11 15:55:00
10:35 AM,44.6,28.4,53,29.85,10.0,North,8.1,-,N/A,,Overcast,10,2013-04-11 16:35:00
11:15 AM,44.6,30.2,57,29.85,10.0,North,15.0,-,N/A,,Mostly Cloudy,360,2013-04-11 17:15:00
12:15 PM,46.4,28.4,50,29.85,10.0,North,10.4,-,N/A,,Overcast,360,2013-04-11 18:15:00
12:55 PM,48.2,28.4,46,29.84,10.0,North,11.5,17.3,N/A,,Mostly Cloudy,10,2013-04-11 18:55:00
1:15 PM,48.2,28.4,46,29.84,10.0,NNE,9.2,17.3,N/A,,Mostly Cloudy,20,2013-04-11 19:15:00
1:35 PM,51.8,30.2,44,29.84,10.0,North,13.8,-,N/A,,Overcast,350,2013-04-11 19:35:00
1:55 PM,48.2,28.4,46,29.83,10.0,North,11.5,17.3,N/A,,Overcast,350,2013-04-11 19:55:00
2:15 PM,51.8,28.4,41,29.83,10.0,NNW,11.5,-,N/A,,Mostly Cloudy,330,2013-04-11 20:15:00
2:35 PM,51.8,28.4,41,29.83,10.0,North,13.8,21.9,N/A,,Mostly Cloudy,350,2013-04-11 20:35:00
2:55 PM,51.8,26.6,38,29.83,10.0,NNE,13.8,17.3,N/A,,Scattered Clouds,20,2013-04-11 20:55:00
3:15 PM,51.8,26.6,38,29.83,10.0,North,11.5,18.4,N/A,,Scattered Clouds,10,2013-04-11 21:15:00
3:35 PM,51.8,26.6,38,29.82,10.0,NE,13.8,19.6,N/A,,Mostly Cloudy,40,2013-04-11 21:35:00
3:55 PM,51.8,26.6,38,29.82,10.0,NNE,12.7,18.4,N/A,,Mostly Cloudy,20,2013-04-11 21:55:00
4:15 PM,51.8,24.8,35,29.81,10.0,NNE,13.8,17.3,N/A,,Mostly Cloudy,30,2013-04-11 22:15:00
4:35 PM,50.0,24.8,37,29.81,10.0,NE,15.0,18.4,N/A,,Mostly Cloudy,50,2013-04-11 22:35:00
4:55 PM,50.0,24.8,37,29.80,10.0,North,10.4,-,N/A,,Overcast,10,2013-04-11 22:55:00
5:15 PM,51.8,24.8,35,29.80,10.0,North,12.7,-,N/A,,Overcast,360,2013-04-11 23:15:00
5:35 PM,51.8,24.8,35,29.80,10.0,North,12.7,-,N/A,,Overcast,360,2013-04-11 23:35:00
5:55 PM,48.2,24.8,40,29.81,10.0,NNE,12.7,-,N/A,,Overcast,20,2013-04-11 23:55:00
6:15 PM,48.2,24.8,40,29.81,10.0,North,16.1,19.6,N/A,,Overcast,10,2013-04-12 00:15:00
6:35 PM,48.2,24.8,40,29.81,10.0,North,12.7,-,N/A,,Overcast,10,2013-04-12 00:35:00
6:55 PM,48.2,24.8,40,29.81,10.0,NNE,12.7,-,N/A,,Overcast,20,2013-04-12 00:55:00
7:55 PM,46.4,24.8,43,29.83,10.0,North,6.9,-,N/A,,Overcast,350,2013-04-12 01:55:00
8:15 PM,44.6,26.6,49,29.85,10.0,NNW,5.8,19.6,N/A,,Mostly Cloudy,340,2013-04-12 02:15:00
8:35 PM,44.6,28.4,53,29.86,10.0,Calm,Calm,-,N/A,,Overcast,0,2013-04-12 02:35:00
8:55 PM,44.6,28.4,53,29.86,10.0,NW,8.1,-,N/A,,Mostly Cloudy,310,2013-04-12 02:55:00
9:15 PM,42.8,28.4,57,29.87,10.0,NNW,12.7,-,N/A,,Overcast,340,2013-04-12 03:15:00
9:35 PM,42.8,28.4,57,29.87,10.0,North,10.4,-,N/A,,Overcast,350,2013-04-12 03:35:00
9:55 PM,41.0,28.4,61,29.88,10.0,NNE,9.2,-,N/A,,Overcast,20,2013-04-12 03:55:00
10:35 PM,39.2,30.2,70,29.90,10.0,NNW,13.8,18.4,N/A,,Overcast,340,2013-04-12 04:35:00
10:55 PM,37.4,32.0,81,29.89,10.0,Calm,Calm,-,N/A,,Overcast,0,2013-04-12 04:55:00
11:15 PM,37.4,33.8,87,29.89,10.0,NW,5.8,-,N/A,,Mostly Cloudy,310,2013-04-12 05:15:00
11:35 PM,37.4,32.0,81,29.90,10.0,NNE,8.1,-,N/A,,Mostly Cloudy,20,2013-04-12 05:35:00